Flag for France Weather past 2 weeks in Toulouse, France

Now
72 °F

More clouds than sun.


Feels Like: 77 °F
Forecast: 49 / 77 °F
Wind: 10 mph from Northwest

Location: Toulouse / Blagnac

Current Time: Aug 20, 2014 at 5:12:09 PM

Latest Report: Aug 20, 2014 at 4:30 PM


Visibility: N/A

Pressure: 30.07 "Hg

Humidity: 47%

Dew point: 50 °F

Location of ToulouseLocation

Historic Weather in Toulouse — Graph

°F

Toulouse temperature yesterday

Maximum temperature yesterday: 72 °F (at 3:30 PM)
Minimum temperature yesterday: 63 °F (at 7:30 AM)
Average temperature yesterday: 67 °F

Past Weeks' High & Low Weather Summary

 TemperatureHumidityPressure
High88 °F (Aug 8, 3:30 PM)100% (Aug 6, 7:30 AM)30.27 "Hg (Aug 6, 7:30 AM)
Low54 °F (Aug 17, 4:30 AM)42% (Aug 17, 3:00 PM)29.77 "Hg (Aug 8, 5:00 PM)
Average69 °F70%30.02 "Hg
* Reported Aug 5 4:00 PM — Aug 20 4:00 PM, Toulouse, Weather by CustomWeather, © 2014

Note: Actual official high and low records may vary slightly from our data, if they occured in-between our weather recording intervals... More about our weather records

Advertising

Toulouse weather history for previous 24 hours

 ConditionsComfort  
Time TempWeatherWind HumidityBarometerVisibility
4:00 PM
Aug 20
72 °FMostly cloudy.10 mph47%30.07 "HgN/A
3:30 PM72 °FOvercast.15 mph47%30.07 "HgN/A
3:00 PM70 °FOvercast.14 mph50%30.07 "HgN/A
2:30 PM70 °FOvercast.13 mph53%30.07 "HgN/A
2:00 PM68 °FClear.13 mph56%30.07 "HgN/A
1:30 PM68 °FMore clouds than sun.9 mph56%30.07 "HgN/A
1:00 PM66 °FMostly cloudy.8 mph52%30.07 "HgN/A
12:30 PM66 °FPartly sunny.9 mph52%30.07 "HgN/A
12:00 PM66 °FMostly cloudy.9 mph49%30.07 "HgN/A
11:30 AM66 °FOvercast.8 mph56%30.07 "HgN/A
11:00 AM64 °FOvercast.8 mph64%30.07 "HgN/A
10:30 AM64 °FPartly sunny.6 mph64%30.07 "HgN/A
10:00 AM63 °FPartly sunny.5 mph64%30.07 "HgN/A
9:30 AM61 °FPartly sunny.8 mph72%30.07 "HgN/A
9:00 AM61 °FPartly sunny.8 mph72%30.07 "HgN/A
8:30 AM59 °FBroken clouds.3 mph77%30.07 "HgN/A
8:00 AM57 °FClear.5 mph82%30.04 "HgN/A
7:30 AM57 °FClear.6 mph82%30.04 "HgN/A
7:00 AM57 °FClear.3 mph82%30.04 "HgN/A
6:30 AM59 °FClear.5 mph77%30.04 "HgN/A
6:00 AM59 °FClear.5 mph82%30.04 "HgN/A
5:30 AM59 °FClear.5 mph82%30.04 "HgN/A
5:00 AM59 °FClear.5 mph82%30.04 "HgN/A
4:30 AM61 °FClear.5 mph77%30.04 "HgN/A
4:00 AM61 °FClear.3 mph83%30.04 "HgN/A
3:30 AM63 °FClear.5 mph77%30.04 "HgN/A
3:00 AM63 °FPassing clouds.3 mph77%30.04 "HgN/A
2:30 AM64 °FPassing clouds.3 mph68%30.04 "HgN/A
2:00 AM64 °FMostly cloudy.1 mph68%30.04 "HgN/A
1:30 AM66 °FMostly cloudy.5 mph64%30.04 "HgN/A
1:00 AM66 °FClear.5 mph64%30.04 "HgN/A
12:30 AM66 °FClear.7 mph64%30.07 "HgN/A
12:00 AM66 °FClear.7 mph68%30.07 "HgN/A
11:30 PM
Aug 19
66 °FClear.7 mph64%30.07 "HgN/A
11:00 PM66 °FClear.6 mph68%30.07 "HgN/A
10:30 PM68 °FClear.7 mph60%30.07 "HgN/A
10:00 PM68 °FClear.8 mph60%30.04 "HgN/A
9:30 PM70 °FClear.6 mph57%30.04 "HgN/A
9:00 PM70 °FClear.7 mph57%30.04 "HgN/A
8:30 PM70 °FClear.8 mph53%30.01 "HgN/A
8:00 PM70 °FClear.6 mph57%30.01 "HgN/A
7:30 PM70 °FOvercast.7 mph57%30.01 "HgN/A
7:00 PM70 °FClear.8 mph57%30.01 "HgN/A
6:30 PM72 °FOvercast.8 mph53%30.01 "HgN/A
6:00 PM70 °FMore clouds than sun.8 mph57%30.01 "HgN/A
5:30 PM70 °FOvercast.8 mph53%30.01 "HgN/A
5:00 PM72 °FClear.8 mph53%30.01 "HgN/A
Weather by CustomWeather, © 2014

See weather overviewHow to use our weather pages